GEFSMA_prec_meanprecacc_336.txt.gz
Total_Precipitation_Accumulation
4.15 4.33 4.37 4.40 3.96 3.94 4.13 4.46 4.22 4.37 4.32 3.80 3.27 3.08 3.09 3.06 3.01 3.11 3.40 3.43 3.22 3.32 4.16 4.65 4.49 4.10 3.58 3.09 2.80 2.66 2.60 2.44 2.25 1.95 1.82 1.92 1.91 1.91 1.81 1.60 1.51 1.27 0.99
4.48 4.57 4.58 4.53 4.04 3.86 4.13 4.44 4.35 4.86 4.76 4.51 3.85 3.45 3.27 3.25 3.17 3.20 3.53 3.75 3.69 3.63 4.11 4.74 5.01 4.93 4.45 3.83 3.33 3.02 3.00 2.95 2.69 2.22 1.99 2.08 2.14 2.07 1.97 1.80 1.54 1.31 1.07
4.71 4.55 4.53 4.36 4.20 4.08 4.22 4.37 4.50 4.87 4.55 4.45 4.28 3.91 3.66 3.43 3.22 3.40 3.80 4.22 3.83 3.74 4.15 4.70 5.14 5.12 4.95 4.64 4.07 3.62 3.26 3.04 2.89 2.52 2.14 2.01 2.05 1.98 1.89 1.81 1.64 1.40 1.13
4.57 4.74 4.48 4.23 4.30 4.21 4.43 4.82 4.82 4.88 4.97 4.84 4.58 4.27 4.02 3.88 3.39 3.45 3.63 3.86 4.11 3.53 3.96 4.71 4.99 4.73 4.82 5.05 4.96 4.65 4.09 3.45 3.16 2.83 2.46 2.18 2.09 2.00 1.89 1.82 1.74 1.56 1.27
4.21 4.76 4.67 4.64 4.52 4.73 4.68 4.30 4.93 5.13 5.13 5.05 4.37 4.28 3.81 3.72 3.62 3.41 3.53 3.60 3.84 3.77 3.78 3.87 4.47 4.32 4.56 5.15 5.50 5.61 5.29 4.58 3.87 3.40 3.02 2.69 2.50 2.24 2.00 1.88 1.77 1.55 1.31
4.22 4.63 4.52 4.54 4.70 5.14 5.24 5.07 5.37 5.22 5.01 5.05 4.25 4.02 3.70 3.30 3.22 3.19 3.02 3.28 3.35 3.01 3.18 3.42 3.86 3.31 3.62 4.16 4.76 5.50 5.94 5.83 5.07 4.20 3.79 3.51 3.30 2.83 2.29 1.97 1.73 1.55 1.37
4.04 4.50 4.28 4.79 4.79 4.98 5.12 5.00 5.22 5.06 4.80 4.88 4.84 4.26 3.59 3.09 2.95 2.74 2.75 2.98 2.91 2.90 3.22 3.68 3.97 3.83 3.38 3.32 3.63 4.46 5.53 6.18 5.95 5.17 4.65 4.32 4.07 3.55 2.79 2.35 1.93 1.62 1.46
3.71 3.85 4.49 4.47 4.57 4.83 4.87 4.83 4.87 4.59 4.28 4.68 5.03 4.91 4.12 3.63 3.09 2.49 2.71 2.75 2.90 3.18 3.17 3.24 3.74 4.09 3.84 3.86 3.38 3.36 4.57 5.75 6.33 6.12 5.76 5.35 4.94 4.17 3.39 2.82 2.22 1.79 1.59
3.71 3.87 4.22 4.29 4.38 4.29 4.55 4.78 4.59 4.51 4.40 4.48 4.73 5.07 4.59 3.91 3.26 2.78 2.60 2.67 3.04 3.34 3.21 3.16 3.11 3.35 3.42 3.91 4.04 3.44 3.59 4.06 4.99 6.18 6.62 6.41 5.56 4.35 3.58 3.14 2.67 2.16 1.78
3.43 3.59 3.84 4.08 4.22 4.12 4.32 4.15 4.28 4.49 4.57 4.39 4.48 4.40 4.37 4.13 3.91 3.36 2.84 2.70 2.95 3.06 3.04 2.76 2.75 3.10 3.26 3.74 3.92 3.28 2.93 2.90 3.34 4.63 5.84 6.08 5.55 4.48 3.72 3.47 3.42 3.01 2.35
3.28 3.30 3.53 3.77 3.89 3.81 3.83 4.04 4.42 4.35 4.32 4.25 4.40 4.47 4.60 4.36 4.01 3.79 3.35 3.07 2.86 2.58 2.63 2.64 2.61 2.72 2.98 3.45 3.68 3.09 2.91 2.66 2.56 2.99 3.82 4.49 4.79 4.45 3.94 3.84 4.13 4.12 3.63
3.19 3.16 3.27 3.60 3.68 3.61 3.62 3.80 3.94 3.99 4.04 4.19 4.22 4.13 4.34 4.36 4.17 4.17 3.69 3.29 2.94 2.41 2.33 2.39 2.51 2.64 2.76 3.05 2.89 2.75 2.82 2.60 2.36 2.31 2.59 3.13 3.68 3.99 3.88 3.95 4.31 4.63 4.65
3.05 3.06 3.07 3.23 3.19 3.19 3.32 3.62 3.67 3.61 3.67 3.81 3.81 3.88 3.86 3.74 3.87 4.00 3.89 3.38 2.98 2.41 2.35 2.25 2.23 2.47 2.50 2.94 2.99 2.82 2.63 2.47 2.26 2.17 2.24 2.37 2.71 3.10 3.46 3.69 4.13 4.57 4.81
2.91 2.87 2.78 2.76 2.72 2.80 2.91 3.35 3.43 3.38 3.49 3.50 3.38 3.73 3.56 3.33 3.54 3.58 3.65 3.81 3.48 3.04 2.91 2.62 2.23 2.24 2.45 2.71 2.88 2.76 2.35 2.33 2.16 2.08 2.05 2.07 2.19 2.38 2.67 2.96 3.29 3.59 3.85
2.50 2.66 2.61 2.47 2.44 2.60 2.81 3.01 3.07 3.08 3.25 3.21 3.27 3.38 3.14 3.06 3.14 3.18 3.40 3.72 3.84 3.54 3.32 3.06 2.56 2.28 2.33 2.60 2.95 2.60 2.43 2.34 2.15 2.03 1.91 1.85 1.86 1.91 2.02 2.18 2.38 2.59 2.72
2.50 2.48 2.48 2.38 2.35 2.37 2.47 2.74 2.76 2.86 2.92 2.95 3.10 3.14 3.08 2.98 3.08 3.02 3.09 3.35 3.62 3.70 3.42 3.03 2.70 2.34 2.44 2.37 2.63 2.53 2.53 2.49 2.18 1.95 1.75 1.65 1.66 1.71 1.81 1.88 1.93 2.06 2.11
2.54 2.51 2.51 2.51 2.40 2.33 2.41 2.55 2.40 2.61 2.64 2.68 2.64 2.68 2.74 2.98 3.09 3.00 3.05 3.11 3.38 3.70 3.58 3.27 2.94 2.72 2.64 2.61 2.46 2.40 2.30 2.19 1.99 1.85 1.61 1.50 1.50 1.54 1.60 1.68 1.77 1.89 1.97
2.17 2.19 2.16 2.20 2.24 2.42 2.55 2.46 2.41 2.44 2.51 2.45 2.51 2.65 2.53 2.73 2.90 2.82 2.94 2.97 3.14 3.52 3.66 3.73 3.61 3.29 3.03 2.85 2.78 2.55 2.12 1.93 1.99 1.97 1.75 1.57 1.48 1.44 1.44 1.48 1.59 1.75 1.86
2.13 2.08 2.08 2.10 2.13 2.35 2.50 2.43 2.44 2.52 2.53 2.38 2.47 2.50 2.36 2.52 2.59 2.66 2.73 2.79 2.99 3.23 3.55 3.48 3.48 3.41 3.25 2.98 3.06 2.74 2.40 2.33 1.90 1.87 1.83 1.65 1.54 1.46 1.42 1.43 1.51 1.59 1.68
2.20 2.30 2.31 2.24 2.24 2.15 2.17 2.32 2.46 2.46 2.42 2.31 2.32 2.25 2.13 2.15 2.25 2.46 2.48 2.62 2.85 3.08 3.30 3.25 3.30 3.40 3.48 3.48 3.47 3.19 2.97 2.72 2.32 1.87 1.90 1.74 1.67 1.55 1.41 1.34 1.37 1.46 1.61
2.21 2.45 2.47 2.43 2.38 2.17 2.00 2.13 2.26 2.18 2.21 2.16 2.12 1.96 1.77 1.84 1.96 2.04 1.95 2.34 2.69 2.83 2.92 2.99 3.08 3.27 3.43 3.67 3.48 3.33 3.21 3.15 2.82 2.35 2.28 1.93 1.80 1.61 1.44 1.38 1.39 1.39 1.44
2.37 2.41 2.34 2.31 2.20 1.87 1.94 1.89 1.84 1.90 1.96 1.97 1.98 1.96 1.82 1.73 1.69 1.72 1.68 1.85 2.20 2.37 2.58 2.87 3.00 3.20 3.30 3.33 3.51 3.47 3.42 3.28 2.98 2.64 2.62 2.53 2.39 2.25 1.97 1.62 1.53 1.38 1.29
2.29 2.18 2.10 2.09 2.02 1.94 1.80 1.57 1.51 1.64 1.83 1.91 1.94 1.98 1.72 1.58 1.66 1.54 1.61 1.67 1.71 1.82 2.00 2.40 2.68 2.78 2.87 2.95 3.24 3.32 3.30 3.16 3.06 2.92 2.96 2.93 2.82 2.57 2.12 1.94 1.88 1.61 1.46
2.13 2.12 2.00 1.99 2.06 1.93 1.84 1.58 1.48 1.45 1.63 1.68 1.67 1.71 1.76 1.72 1.63 1.69 1.67 1.63 1.54 1.57 1.69 1.72 1.89 2.13 2.42 2.68 2.87 3.07 3.36 3.29 3.20 3.11 3.06 3.12 2.97 2.82 2.42 2.14 2.04 1.80 1.68
2.06 2.06 2.03 2.05 2.04 1.97 1.91 1.68 1.60 1.56 1.67 1.67 1.68 1.70 1.79 1.83 1.87 1.76 1.69 1.70 1.68 1.68 1.64 1.63 1.56 1.67 1.86 2.00 2.18 2.47 2.84 3.18 3.36 3.33 3.12 3.20 3.13 3.15 3.07 2.65 2.25 2.08 1.84
2.11 2.08 2.10 2.07 1.96 1.92 1.81 1.62 1.60 1.58 1.78 1.89 1.98 1.96 1.86 1.73 1.75 1.66 1.61 1.69 1.65 1.65 1.57 1.53 1.46 1.44 1.44 1.59 1.79 2.01 2.32 2.71 2.99 3.14 3.07 3.19 3.35 3.70 3.85 3.29 2.68 2.27 2.05

GEFSMA_prec_meanprecacc_342.txt.gz
Total_Precipitation_Accumulation
4.20 4.35 4.39 4.42 3.99 3.98 4.17 4.49 4.24 4.40 4.34 3.83 3.30 3.11 3.13 3.11 3.07 3.20 3.49 3.48 3.27 3.39 4.24 4.72 4.56 4.17 3.65 3.16 2.87 2.72 2.66 2.49 2.29 1.99 1.85 1.95 1.95 1.94 1.85 1.64 1.54 1.30 1.01
4.53 4.61 4.60 4.55 4.07 3.90 4.17 4.47 4.37 4.89 4.79 4.54 3.89 3.48 3.31 3.29 3.23 3.29 3.63 3.82 3.75 3.69 4.19 4.83 5.10 5.04 4.56 3.94 3.44 3.11 3.06 3.01 2.74 2.25 2.01 2.10 2.18 2.11 2.02 1.84 1.57 1.34 1.11
4.77 4.60 4.58 4.39 4.23 4.13 4.27 4.40 4.53 4.91 4.58 4.49 4.33 3.97 3.72 3.47 3.27 3.46 3.88 4.29 3.89 3.80 4.20 4.77 5.23 5.22 5.05 4.75 4.18 3.71 3.33 3.08 2.93 2.55 2.18 2.04 2.08 2.02 1.93 1.84 1.68 1.45 1.17
4.65 4.81 4.54 4.27 4.34 4.26 4.48 4.87 4.89 4.93 5.01 4.89 4.65 4.32 4.07 3.93 3.43 3.48 3.68 3.91 4.16 3.58 4.01 4.77 5.08 4.85 4.92 5.12 5.03 4.72 4.16 3.52 3.21 2.88 2.51 2.22 2.13 2.03 1.92 1.85 1.78 1.60 1.31
4.29 4.83 4.75 4.70 4.57 4.78 4.75 4.41 5.07 5.22 5.17 5.09 4.41 4.31 3.84 3.75 3.66 3.44 3.56 3.65 3.90 3.83 3.87 3.97 4.57 4.44 4.70 5.29 5.63 5.73 5.39 4.69 3.97 3.48 3.09 2.76 2.56 2.28 2.04 1.91 1.82 1.59 1.35
4.27 4.71 4.64 4.64 4.78 5.22 5.33 5.16 5.45 5.29 5.08 5.11 4.31 4.06 3.74 3.35 3.27 3.23 3.06 3.32 3.41 3.10 3.30 3.58 3.99 3.43 3.73 4.27 4.89 5.65 6.08 5.98 5.22 4.36 3.90 3.60 3.38 2.90 2.34 2.01 1.77 1.59 1.41
4.06 4.55 4.39 4.92 4.88 5.07 5.21 5.09 5.31 5.15 4.90 4.97 4.93 4.33 3.64 3.15 3.02 2.81 2.81 3.04 2.97 2.99 3.35 3.83 4.10 3.95 3.49 3.40 3.72 4.57 5.67 6.34 6.09 5.30 4.77 4.41 4.17 3.64 2.86 2.40 1.96 1.65 1.49
3.72 3.88 4.55 4.60 4.70 4.93 4.98 4.95 4.99 4.71 4.40 4.80 5.13 5.00 4.18 3.68 3.15 2.54 2.77 2.81 2.95 3.25 3.26 3.35 3.86 4.20 3.93 3.93 3.42 3.41 4.65 5.86 6.44 6.22 5.86 5.44 5.01 4.24 3.45 2.87 2.27 1.83 1.62
3.72 3.88 4.23 4.35 4.48 4.40 4.65 4.88 4.69 4.60 4.50 4.59 4.84 5.15 4.64 3.95 3.31 2.84 2.66 2.73 3.11 3.42 3.31 3.28 3.21 3.42 3.49 3.99 4.09 3.48 3.63 4.11 5.06 6.27 6.70 6.51 5.65 4.42 3.64 3.20 2.73 2.22 1.82
3.45 3.60 3.85 4.09 4.25 4.17 4.39 4.22 4.35 4.54 4.64 4.48 4.58 4.48 4.43 4.17 3.95 3.40 2.89 2.75 3.02 3.13 3.12 2.86 2.84 3.18 3.33 3.81 3.98 3.33 2.98 2.95 3.41 4.72 5.94 6.21 5.69 4.60 3.83 3.56 3.51 3.09 2.41
3.31 3.32 3.55 3.79 3.91 3.82 3.86 4.08 4.47 4.39 4.36 4.31 4.47 4.52 4.65 4.41 4.05 3.83 3.40 3.12 2.91 2.62 2.68 2.72 2.70 2.80 3.05 3.53 3.73 3.14 2.97 2.72 2.61 3.04 3.87 4.55 4.86 4.54 4.03 3.91 4.20 4.18 3.69
3.22 3.18 3.29 3.63 3.70 3.63 3.63 3.82 3.96 4.01 4.07 4.22 4.26 4.16 4.37 4.39 4.20 4.21 3.73 3.33 2.98 2.46 2.37 2.44 2.56 2.70 2.83 3.13 2.96 2.81 2.89 2.66 2.40 2.34 2.63 3.18 3.73 4.04 3.95 4.01 4.36 4.69 4.71
3.10 3.11 3.10 3.27 3.22 3.22 3.35 3.65 3.71 3.65 3.70 3.85 3.84 3.91 3.89 3.77 3.91 4.05 3.93 3.41 3.01 2.45 2.39 2.28 2.27 2.58 2.64 3.04 3.11 2.93 2.72 2.54 2.30 2.20 2.27 2.42 2.77 3.14 3.51 3.74 4.18 4.63 4.87
2.97 2.93 2.83 2.80 2.76 2.85 2.97 3.42 3.50 3.43 3.54 3.55 3.43 3.78 3.61 3.37 3.59 3.63 3.70 3.85 3.51 3.07 2.94 2.65 2.27 2.32 2.54 2.80 2.99 2.86 2.42 2.38 2.20 2.12 2.08 2.11 2.24 2.42 2.70 2.99 3.33 3.63 3.90
2.53 2.69 2.63 2.50 2.47 2.65 2.85 3.04 3.11 3.12 3.29 3.26 3.32 3.43 3.18 3.09 3.18 3.22 3.45 3.78 3.89 3.56 3.35 3.09 2.60 2.32 2.36 2.62 2.99 2.64 2.47 2.38 2.17 2.06 1.94 1.87 1.89 1.95 2.06 2.22 2.42 2.63 2.75
2.53 2.52 2.51 2.41 2.38 2.40 2.51 2.78 2.79 2.90 2.96 3.00 3.15 3.18 3.11 3.01 3.12 3.06 3.13 3.38 3.67 3.73 3.44 3.05 2.73 2.36 2.46 2.38 2.65 2.57 2.57 2.52 2.21 1.99 1.80 1.71 1.72 1.77 1.87 1.94 1.99 2.12 2.16
2.59 2.56 2.54 2.54 2.42 2.35 2.45 2.58 2.44 2.66 2.68 2.73 2.68 2.72 2.77 3.01 3.11 3.02 3.08 3.14 3.41 3.73 3.61 3.30 2.98 2.76 2.68 2.64 2.49 2.44 2.34 2.22 2.02 1.88 1.66 1.57 1.58 1.63 1.69 1.75 1.85 1.97 2.06
2.20 2.22 2.19 2.21 2.25 2.43 2.57 2.50 2.45 2.49 2.55 2.48 2.53 2.68 2.56 2.76 2.92 2.85 2.98 3.00 3.17 3.55 3.69 3.76 3.63 3.32 3.08 2.89 2.82 2.60 2.16 1.97 2.02 2.00 1.80 1.63 1.55 1.53 1.54 1.58 1.69 1.85 1.96
2.16 2.12 2.11 2.12 2.14 2.36 2.52 2.45 2.47 2.55 2.56 2.41 2.50 2.52 2.38 2.54 2.62 2.70 2.77 2.82 3.02 3.26 3.59 3.52 3.50 3.43 3.29 3.03 3.11 2.78 2.45 2.38 1.95 1.93 1.89 1.72 1.62 1.55 1.51 1.53 1.61 1.69 1.77
2.25 2.34 2.37 2.29 2.28 2.18 2.19 2.34 2.48 2.48 2.44 2.33 2.34 2.27 2.15 2.18 2.28 2.50 2.52 2.66 2.89 3.12 3.35 3.30 3.33 3.44 3.53 3.52 3.52 3.23 3.01 2.77 2.37 1.93 1.98 1.83 1.77 1.64 1.50 1.43 1.46 1.54 1.69
2.27 2.52 2.53 2.49 2.44 2.22 2.04 2.16 2.29 2.21 2.24 2.19 2.15 1.99 1.81 1.88 2.01 2.09 1.99 2.37 2.74 2.89 2.97 3.04 3.12 3.31 3.47 3.71 3.52 3.38 3.27 3.22 2.91 2.43 2.37 2.02 1.90 1.70 1.53 1.46 1.46 1.45 1.50
2.44 2.48 2.40 2.37 2.25 1.92 1.98 1.93 1.89 1.95 2.02 2.03 2.04 2.02 1.87 1.78 1.73 1.76 1.71 1.89 2.25 2.42 2.64 2.93 3.05 3.24 3.33 3.35 3.53 3.51 3.48 3.33 3.04 2.71 2.69 2.60 2.46 2.32 2.03 1.68 1.59 1.46 1.37
2.34 2.23 2.18 2.18 2.11 2.01 1.86 1.62 1.56 1.69 1.89 1.98 2.02 2.04 1.77 1.62 1.70 1.56 1.64 1.70 1.75 1.86 2.04 2.44 2.72 2.82 2.91 2.97 3.26 3.34 3.33 3.19 3.10 2.95 2.99 2.96 2.85 2.60 2.15 1.97 1.92 1.65 1.51
2.19 2.17 2.05 2.04 2.12 2.01 1.92 1.65 1.53 1.49 1.69 1.73 1.72 1.76 1.81 1.78 1.69 1.74 1.71 1.66 1.56 1.60 1.71 1.73 1.90 2.15 2.44 2.70 2.89 3.08 3.37 3.31 3.23 3.14 3.08 3.14 2.99 2.84 2.44 2.16 2.07 1.82 1.71
2.11 2.12 2.08 2.09 2.09 2.02 1.97 1.75 1.68 1.62 1.72 1.70 1.71 1.73 1.83 1.88 1.92 1.82 1.74 1.74 1.71 1.70 1.66 1.65 1.58 1.68 1.87 2.02 2.21 2.49 2.85 3.19 3.37 3.34 3.13 3.21 3.14 3.16 3.08 2.67 2.27 2.10 1.85
2.18 2.19 2.18 2.12 2.00 1.96 1.85 1.66 1.65 1.63 1.82 1.92 2.01 1.98 1.89 1.76 1.78 1.70 1.66 1.72 1.67 1.66 1.58 1.54 1.47 1.45 1.45 1.61 1.81 2.03 2.33 2.72 3.00 3.15 3.08 3.21 3.36 3.71 3.86 3.30 2.69 2.29 2.06

GEFSMA_prec_meanprecacc_348.txt.gz
Total_Precipitation_Accumulation
4.29 4.42 4.45 4.49 4.05 4.04 4.22 4.53 4.27 4.43 4.38 3.90 3.37 3.17 3.18 3.16 3.13 3.26 3.56 3.55 3.34 3.47 4.33 4.83 4.67 4.27 3.75 3.24 2.94 2.80 2.74 2.59 2.37 2.04 1.90 2.00 1.99 1.99 1.89 1.68 1.57 1.32 1.04
4.59 4.67 4.65 4.59 4.10 3.94 4.22 4.51 4.40 4.92 4.81 4.57 3.93 3.54 3.35 3.34 3.28 3.34 3.67 3.86 3.81 3.75 4.26 4.91 5.19 5.12 4.67 4.05 3.54 3.21 3.15 3.08 2.82 2.33 2.07 2.15 2.22 2.16 2.06 1.88 1.61 1.37 1.14
4.83 4.63 4.61 4.43 4.26 4.16 4.31 4.44 4.56 4.95 4.62 4.52 4.38 4.03 3.77 3.52 3.31 3.51 3.91 4.33 3.92 3.84 4.26 4.85 5.33 5.32 5.16 4.89 4.34 3.88 3.48 3.21 3.03 2.64 2.25 2.10 2.13 2.06 1.96 1.88 1.71 1.48 1.21
4.70 4.85 4.58 4.31 4.37 4.29 4.53 4.91 4.94 5.00 5.07 4.95 4.70 4.37 4.10 3.97 3.47 3.51 3.70 3.94 4.18 3.60 4.05 4.84 5.19 4.96 5.05 5.28 5.21 4.92 4.39 3.72 3.37 2.99 2.59 2.29 2.18 2.07 1.95 1.89 1.82 1.64 1.35
4.33 4.89 4.81 4.75 4.61 4.82 4.80 4.46 5.14 5.30 5.24 5.14 4.45 4.34 3.87 3.79 3.70 3.47 3.58 3.67 3.92 3.86 3.89 4.01 4.65 4.53 4.82 5.46 5.86 5.94 5.58 4.86 4.14 3.64 3.21 2.85 2.64 2.34 2.08 1.96 1.86 1.63 1.39
4.32 4.77 4.71 4.71 4.84 5.28 5.40 5.23 5.52 5.36 5.12 5.15 4.33 4.09 3.77 3.38 3.30 3.26 3.09 3.35 3.44 3.14 3.33 3.61 4.03 3.49 3.79 4.36 5.02 5.82 6.29 6.22 5.46 4.55 4.06 3.73 3.48 2.99 2.40 2.06 1.84 1.65 1.46
4.12 4.61 4.47 5.02 4.97 5.14 5.27 5.15 5.35 5.18 4.93 5.01 4.96 4.37 3.68 3.20 3.07 2.86 2.86 3.09 3.02 3.04 3.39 3.86 4.14 4.00 3.55 3.46 3.78 4.70 5.85 6.54 6.30 5.48 4.93 4.53 4.27 3.74 2.94 2.47 2.03 1.72 1.55
3.77 3.95 4.62 4.68 4.78 5.01 5.04 5.00 5.05 4.76 4.45 4.84 5.16 5.04 4.24 3.76 3.22 2.60 2.82 2.86 3.01 3.30 3.30 3.39 3.90 4.24 3.99 3.98 3.47 3.47 4.76 5.99 6.57 6.34 5.97 5.55 5.12 4.34 3.55 2.97 2.36 1.91 1.69
3.74 3.93 4.29 4.41 4.56 4.49 4.73 4.95 4.76 4.69 4.59 4.66 4.90 5.23 4.72 4.02 3.38 2.89 2.71 2.78 3.15 3.47 3.36 3.31 3.23 3.45 3.52 4.02 4.12 3.51 3.67 4.16 5.11 6.35 6.80 6.62 5.78 4.56 3.76 3.31 2.83 2.30 1.91
3.47 3.63 3.88 4.13 4.31 4.25 4.48 4.30 4.42 4.61 4.71 4.55 4.66 4.56 4.52 4.24 4.02 3.45 2.93 2.79 3.06 3.17 3.14 2.89 2.87 3.20 3.36 3.83 4.01 3.36 3.01 2.99 3.45 4.77 6.01 6.30 5.84 4.80 3.98 3.67 3.61 3.19 2.51
3.34 3.36 3.58 3.82 3.94 3.86 3.91 4.14 4.53 4.46 4.42 4.36 4.53 4.61 4.75 4.50 4.11 3.86 3.42 3.15 2.94 2.65 2.70 2.75 2.72 2.82 3.08 3.55 3.76 3.17 3.01 2.75 2.65 3.07 3.92 4.62 4.97 4.71 4.18 4.03 4.30 4.28 3.78
3.28 3.25 3.36 3.71 3.78 3.69 3.66 3.84 4.00 4.05 4.11 4.27 4.31 4.23 4.45 4.46 4.26 4.24 3.74 3.34 3.00 2.48 2.39 2.45 2.58 2.72 2.86 3.15 2.97 2.82 2.91 2.70 2.44 2.37 2.66 3.22 3.79 4.14 4.06 4.12 4.46 4.77 4.80
3.17 3.21 3.20 3.35 3.29 3.29 3.40 3.70 3.74 3.68 3.73 3.88 3.89 3.97 3.95 3.81 3.95 4.08 3.95 3.44 3.04 2.46 2.40 2.29 2.29 2.59 2.66 3.06 3.13 2.94 2.73 2.57 2.33 2.22 2.29 2.45 2.81 3.21 3.59 3.83 4.27 4.70 4.95
3.05 3.01 2.90 2.86 2.82 2.92 3.03 3.47 3.53 3.46 3.58 3.59 3.47 3.86 3.70 3.43 3.64 3.67 3.74 3.90 3.54 3.08 2.96 2.67 2.29 2.35 2.56 2.82 3.00 2.88 2.43 2.41 2.23 2.14 2.10 2.14 2.29 2.49 2.78 3.06 3.40 3.70 3.96
2.59 2.77 2.70 2.56 2.53 2.70 2.89 3.08 3.13 3.14 3.32 3.29 3.37 3.49 3.24 3.15 3.22 3.27 3.50 3.83 3.93 3.60 3.37 3.11 2.63 2.35 2.39 2.64 3.00 2.65 2.49 2.40 2.20 2.08 1.96 1.89 1.91 1.98 2.10 2.27 2.47 2.68 2.80
2.56 2.57 2.57 2.47 2.43 2.45 2.55 2.82 2.82 2.93 2.99 3.03 3.18 3.21 3.14 3.04 3.14 3.09 3.16 3.41 3.70 3.76 3.46 3.06 2.74 2.38 2.48 2.40 2.67 2.59 2.60 2.56 2.25 2.02 1.81 1.72 1.74 1.79 1.89 1.98 2.03 2.18 2.23
2.63 2.61 2.60 2.60 2.48 2.39 2.49 2.62 2.47 2.69 2.71 2.76 2.70 2.73 2.79 3.02 3.12 3.04 3.10 3.16 3.43 3.76 3.64 3.31 2.99 2.77 2.69 2.66 2.51 2.47 2.38 2.26 2.06 1.92 1.69 1.59 1.60 1.64 1.70 1.77 1.88 2.02 2.13
2.25 2.27 2.25 2.26 2.30 2.47 2.61 2.53 2.48 2.52 2.57 2.49 2.54 2.69 2.56 2.76 2.93 2.86 2.99 3.01 3.19 3.56 3.72 3.78 3.65 3.34 3.10 2.91 2.85 2.63 2.20 2.02 2.06 2.05 1.83 1.66 1.58 1.56 1.56 1.60 1.71 1.88 2.00
2.22 2.19 2.18 2.17 2.19 2.41 2.56 2.48 2.50 2.58 2.58 2.41 2.51 2.53 2.39 2.55 2.62 2.71 2.78 2.84 3.04 3.29 3.63 3.56 3.52 3.44 3.31 3.04 3.14 2.80 2.47 2.40 1.98 1.96 1.93 1.76 1.66 1.59 1.56 1.58 1.65 1.72 1.81
2.31 2.40 2.42 2.32 2.32 2.22 2.23 2.38 2.52 2.51 2.46 2.34 2.36 2.29 2.18 2.20 2.31 2.54 2.57 2.72 2.95 3.18 3.40 3.34 3.36 3.47 3.56 3.55 3.55 3.23 3.02 2.78 2.39 1.95 2.00 1.86 1.81 1.69 1.56 1.49 1.51 1.60 1.74
2.30 2.54 2.55 2.51 2.47 2.26 2.07 2.20 2.33 2.24 2.27 2.22 2.18 2.03 1.85 1.93 2.07 2.16 2.06 2.43 2.80 2.94 3.02 3.09 3.16 3.35 3.49 3.73 3.53 3.39 3.28 3.24 2.92 2.46 2.39 2.05 1.92 1.72 1.56 1.49 1.49 1.48 1.53
2.46 2.50 2.42 2.39 2.29 1.96 2.02 1.97 1.93 1.98 2.05 2.07 2.09 2.07 1.94 1.87 1.81 1.82 1.76 1.94 2.29 2.47 2.68 2.97 3.07 3.26 3.34 3.36 3.54 3.52 3.49 3.35 3.05 2.72 2.70 2.62 2.48 2.34 2.05 1.69 1.60 1.47 1.38
2.37 2.25 2.20 2.20 2.13 2.05 1.91 1.67 1.60 1.73 1.92 2.01 2.05 2.08 1.82 1.67 1.73 1.59 1.66 1.73 1.78 1.90 2.08 2.47 2.75 2.85 2.92 2.97 3.27 3.34 3.35 3.22 3.12 2.97 3.00 2.98 2.87 2.62 2.18 1.99 1.93 1.66 1.53
2.21 2.19 2.07 2.05 2.14 2.04 1.98 1.71 1.58 1.53 1.72 1.76 1.75 1.79 1.84 1.80 1.72 1.77 1.74 1.70 1.59 1.63 1.75 1.77 1.92 2.16 2.45 2.71 2.91 3.09 3.38 3.33 3.25 3.16 3.10 3.16 3.01 2.86 2.46 2.18 2.08 1.83 1.72
2.14 2.15 2.11 2.12 2.12 2.06 2.02 1.81 1.74 1.66 1.74 1.72 1.73 1.75 1.85 1.89 1.95 1.85 1.77 1.77 1.74 1.72 1.69 1.67 1.59 1.70 1.89 2.03 2.23 2.52 2.88 3.20 3.39 3.37 3.15 3.23 3.16 3.18 3.09 2.68 2.29 2.12 1.87
2.22 2.23 2.22 2.16 2.04 1.99 1.89 1.71 1.70 1.67 1.85 1.95 2.03 2.00 1.92 1.78 1.81 1.73 1.68 1.74 1.69 1.67 1.59 1.55 1.49 1.46 1.46 1.61 1.82 2.04 2.37 2.76 3.02 3.17 3.10 3.23 3.38 3.73 3.87 3.31 2.70 2.30 2.08

GEFSMA_prec_meanprecacc_354.txt.gz
Total_Precipitation_Accumulation
4.36 4.49 4.53 4.60 4.20 4.21 4.38 4.66 4.39 4.51 4.60 4.20 3.61 3.35 3.34 3.29 3.26 3.40 3.68 3.65 3.43 3.56 4.41 4.91 4.75 4.35 3.85 3.34 3.06 2.91 2.86 2.70 2.46 2.11 1.96 2.04 2.03 2.03 1.94 1.71 1.59 1.34 1.06
4.65 4.73 4.72 4.69 4.23 4.07 4.35 4.62 4.49 5.00 4.97 4.79 4.12 3.70 3.51 3.48 3.42 3.48 3.79 3.96 3.89 3.83 4.32 4.98 5.24 5.19 4.75 4.17 3.69 3.33 3.25 3.19 2.93 2.42 2.14 2.21 2.28 2.21 2.10 1.91 1.64 1.40 1.17
4.90 4.72 4.70 4.53 4.35 4.24 4.40 4.53 4.65 5.03 4.73 4.65 4.53 4.18 3.92 3.66 3.44 3.62 4.01 4.42 4.01 3.91 4.32 4.92 5.39 5.39 5.23 4.99 4.46 4.00 3.58 3.30 3.14 2.76 2.37 2.21 2.21 2.12 2.01 1.92 1.76 1.52 1.25
4.78 4.94 4.66 4.40 4.44 4.35 4.59 4.99 5.02 5.08 5.16 5.05 4.82 4.50 4.22 4.07 3.56 3.60 3.79 4.02 4.26 3.66 4.11 4.91 5.26 5.03 5.11 5.37 5.34 5.07 4.50 3.82 3.48 3.11 2.71 2.42 2.29 2.16 2.02 1.95 1.87 1.68 1.39
4.40 4.96 4.88 4.85 4.69 4.88 4.86 4.52 5.21 5.38 5.32 5.24 4.55 4.43 3.95 3.87 3.77 3.52 3.63 3.72 3.98 3.91 3.94 4.06 4.69 4.57 4.85 5.52 5.95 6.06 5.69 4.96 4.26 3.76 3.33 2.97 2.78 2.47 2.18 2.03 1.92 1.69 1.44
4.37 4.83 4.78 4.79 4.92 5.35 5.47 5.30 5.60 5.44 5.20 5.24 4.39 4.14 3.82 3.43 3.37 3.31 3.14 3.40 3.48 3.17 3.37 3.67 4.09 3.54 3.85 4.41 5.07 5.89 6.37 6.32 5.58 4.73 4.23 3.87 3.61 3.10 2.51 2.15 1.92 1.73 1.53
4.16 4.67 4.54 5.09 5.04 5.21 5.35 5.24 5.45 5.28 5.01 5.06 5.02 4.43 3.74 3.27 3.14 2.93 2.92 3.14 3.06 3.08 3.44 3.93 4.23 4.09 3.63 3.51 3.82 4.76 5.92 6.61 6.38 5.61 5.08 4.68 4.39 3.85 3.05 2.57 2.13 1.79 1.61
3.82 4.01 4.71 4.76 4.85 5.09 5.12 5.09 5.13 4.84 4.53 4.90 5.22 5.11 4.33 3.86 3.33 2.69 2.89 2.92 3.06 3.35 3.34 3.43 3.95 4.30 4.05 4.05 3.51 3.51 4.81 6.05 6.63 6.41 6.06 5.66 5.21 4.42 3.65 3.08 2.46 2.00 1.76
3.80 4.00 4.41 4.53 4.66 4.57 4.80 5.03 4.84 4.79 4.69 4.76 4.98 5.31 4.82 4.12 3.48 3.00 2.80 2.85 3.22 3.52 3.40 3.34 3.26 3.48 3.57 4.08 4.16 3.54 3.71 4.20 5.15 6.39 6.85 6.69 5.86 4.64 3.85 3.42 2.95 2.41 1.98
3.53 3.67 3.95 4.24 4.45 4.38 4.58 4.39 4.50 4.69 4.81 4.67 4.79 4.68 4.62 4.34 4.12 3.56 3.04 2.88 3.13 3.23 3.20 2.93 2.90 3.24 3.41 3.88 4.04 3.38 3.04 3.02 3.48 4.79 6.05 6.35 5.91 4.88 4.06 3.76 3.72 3.28 2.58
3.39 3.39 3.62 3.87 4.02 4.00 4.07 4.30 4.67 4.58 4.54 4.47 4.64 4.72 4.88 4.62 4.22 3.96 3.51 3.22 3.01 2.70 2.74 2.79 2.76 2.86 3.12 3.60 3.81 3.20 3.04 2.78 2.68 3.10 3.94 4.66 5.02 4.78 4.25 4.10 4.38 4.37 3.87
3.30 3.27 3.39 3.74 3.82 3.75 3.75 3.96 4.12 4.18 4.24 4.38 4.43 4.35 4.58 4.58 4.36 4.33 3.80 3.39 3.06 2.54 2.43 2.49 2.61 2.75 2.89 3.19 3.01 2.86 2.94 2.72 2.46 2.39 2.68 3.24 3.82 4.18 4.12 4.20 4.55 4.88 4.91
3.19 3.23 3.22 3.38 3.33 3.33 3.45 3.75 3.80 3.75 3.80 3.96 3.96 4.06 4.04 3.89 4.02 4.15 4.01 3.48 3.07 2.51 2.45 2.32 2.31 2.61 2.68 3.08 3.16 2.97 2.75 2.59 2.35 2.24 2.31 2.46 2.83 3.25 3.64 3.90 4.36 4.80 5.05
3.07 3.03 2.93 2.89 2.85 2.95 3.06 3.50 3.56 3.49 3.61 3.63 3.51 3.91 3.76 3.49 3.71 3.73 3.79 3.94 3.57 3.11 3.00 2.71 2.32 2.37 2.59 2.84 3.03 2.90 2.45 2.43 2.24 2.15 2.11 2.15 2.30 2.51 2.81 3.11 3.45 3.77 4.04
2.62 2.79 2.73 2.60 2.57 2.74 2.93 3.11 3.16 3.17 3.35 3.32 3.40 3.53 3.28 3.19 3.28 3.33 3.55 3.89 3.98 3.63 3.40 3.15 2.66 2.38 2.42 2.67 3.03 2.67 2.51 2.43 2.22 2.10 1.97 1.90 1.92 1.99 2.12 2.29 2.50 2.72 2.85
2.59 2.61 2.61 2.50 2.47 2.49 2.59 2.85 2.85 2.96 3.03 3.06 3.21 3.23 3.17 3.06 3.18 3.13 3.20 3.45 3.74 3.80 3.49 3.09 2.76 2.40 2.51 2.43 2.71 2.61 2.61 2.58 2.26 2.03 1.83 1.73 1.75 1.80 1.90 1.98 2.05 2.19 2.25
2.67 2.65 2.64 2.63 2.50 2.42 2.52 2.66 2.52 2.73 2.75 2.80 2.73 2.75 2.81 3.04 3.15 3.07 3.13 3.18 3.46 3.79 3.67 3.34 3.01 2.80 2.73 2.69 2.54 2.49 2.40 2.28 2.08 1.94 1.71 1.61 1.61 1.65 1.71 1.78 1.88 2.02 2.14
2.29 2.32 2.29 2.30 2.33 2.50 2.64 2.56 2.51 2.56 2.62 2.53 2.58 2.72 2.59 2.78 2.96 2.89 3.02 3.05 3.23 3.61 3.76 3.82 3.68 3.37 3.13 2.95 2.89 2.67 2.23 2.04 2.07 2.06 1.85 1.68 1.60 1.58 1.57 1.61 1.72 1.89 2.01
2.27 2.23 2.21 2.21 2.22 2.45 2.61 2.53 2.54 2.63 2.62 2.45 2.55 2.56 2.42 2.57 2.65 2.74 2.81 2.87 3.09 3.34 3.67 3.59 3.56 3.48 3.34 3.07 3.18 2.84 2.50 2.43 1.99 1.97 1.93 1.77 1.67 1.61 1.58 1.59 1.67 1.73 1.82
2.33 2.42 2.45 2.35 2.35 2.26 2.26 2.41 2.55 2.55 2.50 2.38 2.40 2.33 2.21 2.24 2.34 2.57 2.61 2.75 2.99 3.22 3.43 3.37 3.39 3.50 3.59 3.58 3.58 3.27 3.05 2.81 2.41 1.96 2.01 1.87 1.82 1.70 1.57 1.50 1.53 1.61 1.76
2.32 2.56 2.57 2.53 2.50 2.28 2.09 2.23 2.36 2.27 2.31 2.26 2.21 2.05 1.87 1.95 2.10 2.19 2.09 2.47 2.83 2.97 3.05 3.11 3.18 3.37 3.52 3.76 3.55 3.41 3.30 3.26 2.94 2.47 2.41 2.06 1.93 1.73 1.57 1.50 1.50 1.49 1.54
2.48 2.52 2.44 2.41 2.30 1.97 2.04 2.00 1.96 2.01 2.08 2.10 2.12 2.10 1.97 1.89 1.83 1.84 1.79 1.96 2.32 2.50 2.71 3.00 3.10 3.29 3.38 3.40 3.56 3.54 3.50 3.36 3.06 2.73 2.72 2.64 2.49 2.35 2.06 1.69 1.60 1.47 1.39
2.39 2.27 2.21 2.22 2.15 2.08 1.93 1.70 1.63 1.77 1.96 2.05 2.09 2.13 1.87 1.71 1.78 1.63 1.69 1.75 1.80 1.91 2.10 2.51 2.79 2.89 2.96 3.01 3.30 3.37 3.37 3.24 3.13 2.98 3.02 2.99 2.88 2.64 2.19 2.00 1.94 1.67 1.53
2.23 2.21 2.08 2.07 2.16 2.06 2.00 1.73 1.62 1.57 1.77 1.81 1.80 1.84 1.89 1.85 1.76 1.82 1.78 1.73 1.61 1.64 1.77 1.78 1.95 2.19 2.48 2.75 2.94 3.12 3.41 3.35 3.27 3.18 3.12 3.18 3.03 2.88 2.47 2.19 2.09 1.84 1.73
2.15 2.17 2.13 2.14 2.14 2.08 2.04 1.83 1.77 1.69 1.77 1.75 1.77 1.80 1.90 1.94 2.00 1.89 1.82 1.81 1.77 1.75 1.70 1.68 1.61 1.72 1.90 2.06 2.26 2.55 2.91 3.23 3.40 3.38 3.18 3.24 3.18 3.21 3.12 2.70 2.31 2.14 1.89
2.23 2.27 2.25 2.19 2.08 2.02 1.92 1.74 1.75 1.70 1.88 1.98 2.06 2.04 1.95 1.82 1.84 1.76 1.71 1.78 1.73 1.70 1.62 1.58 1.52 1.48 1.48 1.63 1.85 2.07 2.40 2.79 3.04 3.18 3.12 3.25 3.40 3.75 3.89 3.33 2.71 2.31 2.09

GEFSMA_prec_meanprecacc_360.txt.gz
Total_Precipitation_Accumulation
4.52 4.64 4.66 4.72 4.32 4.35 4.54 4.79 4.53 4.64 4.73 4.33 3.70 3.42 3.41 3.40 3.35 3.49 3.77 3.71 3.48 3.60 4.46 4.97 4.82 4.44 3.93 3.44 3.17 2.98 2.93 2.78 2.54 2.18 2.01 2.09 2.07 2.07 1.98 1.76 1.65 1.40 1.11
4.78 4.85 4.82 4.79 4.34 4.17 4.46 4.76 4.66 5.16 5.14 4.96 4.23 3.79 3.59 3.56 3.49 3.56 3.88 4.06 3.96 3.88 4.38 5.04 5.32 5.27 4.83 4.27 3.78 3.40 3.33 3.26 3.01 2.49 2.20 2.26 2.32 2.24 2.14 1.95 1.69 1.46 1.22
4.99 4.81 4.80 4.62 4.44 4.33 4.49 4.66 4.80 5.18 4.91 4.85 4.67 4.26 3.99 3.73 3.54 3.72 4.12 4.53 4.12 3.99 4.38 4.98 5.45 5.46 5.29 5.05 4.53 4.07 3.66 3.38 3.20 2.82 2.43 2.27 2.26 2.15 2.03 1.95 1.80 1.57 1.28
4.85 5.02 4.77 4.47 4.51 4.42 4.69 5.11 5.15 5.20 5.31 5.25 4.99 4.61 4.32 4.17 3.68 3.71 3.89 4.11 4.35 3.74 4.18 4.97 5.31 5.07 5.15 5.42 5.41 5.15 4.57 3.90 3.54 3.17 2.76 2.46 2.35 2.22 2.06 1.98 1.91 1.72 1.43
4.47 5.06 4.98 4.94 4.78 4.97 4.95 4.61 5.31 5.49 5.47 5.43 4.73 4.59 4.07 3.99 3.91 3.64 3.72 3.80 4.05 3.98 4.01 4.11 4.73 4.61 4.91 5.59 6.02 6.13 5.75 5.03 4.32 3.81 3.37 3.02 2.82 2.52 2.24 2.09 1.97 1.74 1.49
4.45 4.94 4.89 4.88 5.00 5.44 5.56 5.40 5.69 5.55 5.34 5.38 4.51 4.27 3.93 3.53 3.46 3.40 3.22 3.47 3.57 3.25 3.44 3.74 4.18 3.62 3.92 4.49 5.14 5.95 6.44 6.38 5.63 4.76 4.27 3.92 3.66 3.15 2.56 2.21 1.97 1.79 1.59
4.24 4.78 4.66 5.20 5.14 5.30 5.44 5.33 5.56 5.38 5.11 5.15 5.11 4.52 3.83 3.34 3.21 2.99 2.97 3.20 3.13 3.15 3.50 4.01 4.33 4.23 3.77 3.59 3.88 4.81 5.98 6.66 6.41 5.63 5.11 4.72 4.43 3.88 3.10 2.63 2.18 1.85 1.67
3.89 4.09 4.81 4.86 4.96 5.19 5.22 5.19 5.24 4.94 4.62 4.98 5.31 5.20 4.41 3.94 3.41 2.74 2.95 2.98 3.12 3.43 3.42 3.51 4.04 4.42 4.15 4.13 3.57 3.57 4.85 6.08 6.66 6.45 6.10 5.70 5.24 4.45 3.69 3.14 2.53 2.06 1.82
3.85 4.06 4.47 4.60 4.75 4.65 4.90 5.11 4.93 4.88 4.79 4.85 5.06 5.40 4.92 4.23 3.59 3.08 2.88 2.93 3.29 3.62 3.51 3.44 3.34 3.56 3.63 4.15 4.22 3.58 3.75 4.22 5.18 6.43 6.90 6.73 5.89 4.68 3.90 3.49 3.02 2.48 2.05
3.57 3.70 3.99 4.28 4.51 4.45 4.66 4.45 4.55 4.75 4.89 4.75 4.88 4.76 4.73 4.46 4.23 3.64 3.13 2.96 3.22 3.35 3.33 3.05 2.98 3.30 3.47 3.95 4.09 3.43 3.07 3.05 3.50 4.82 6.09 6.39 5.96 4.94 4.13 3.84 3.80 3.37 2.66
3.44 3.42 3.65 3.91 4.07 4.05 4.13 4.35 4.72 4.64 4.60 4.54 4.73 4.83 5.00 4.74 4.33 4.07 3.62 3.33 3.11 2.79 2.84 2.90 2.84 2.91 3.18 3.67 3.88 3.25 3.10 2.81 2.70 3.12 3.97 4.68 5.06 4.84 4.33 4.17 4.44 4.43 3.95
3.35 3.30 3.42 3.77 3.86 3.80 3.81 4.00 4.17 4.23 4.30 4.45 4.50 4.43 4.68 4.70 4.48 4.46 3.94 3.52 3.17 2.65 2.57 2.60 2.66 2.78 2.93 3.25 3.07 2.92 3.01 2.77 2.49 2.41 2.70 3.26 3.84 4.21 4.18 4.26 4.61 4.94 4.98
3.24 3.27 3.25 3.41 3.36 3.37 3.49 3.81 3.87 3.81 3.86 4.03 4.03 4.13 4.12 3.97 4.11 4.26 4.12 3.59 3.17 2.59 2.51 2.37 2.34 2.65 2.71 3.13 3.22 3.01 2.80 2.64 2.39 2.28 2.35 2.49 2.85 3.27 3.67 3.96 4.42 4.87 5.12
3.10 3.06 2.96 2.92 2.89 2.99 3.10 3.56 3.62 3.55 3.68 3.69 3.56 3.97 3.81 3.55 3.77 3.80 3.87 4.02 3.65 3.19 3.08 2.79 2.36 2.41 2.63 2.88 3.08 2.94 2.49 2.48 2.29 2.19 2.16 2.18 2.32 2.52 2.82 3.14 3.51 3.84 4.11
2.66 2.84 2.77 2.64 2.62 2.79 2.98 3.16 3.21 3.23 3.42 3.39 3.45 3.58 3.33 3.24 3.34 3.39 3.61 3.96 4.06 3.70 3.48 3.25 2.72 2.41 2.45 2.72 3.08 2.70 2.57 2.50 2.29 2.16 2.02 1.94 1.94 2.00 2.13 2.31 2.54 2.77 2.91
2.63 2.65 2.65 2.54 2.51 2.53 2.63 2.91 2.91 3.02 3.09 3.12 3.27 3.30 3.23 3.11 3.23 3.17 3.24 3.51 3.80 3.86 3.55 3.15 2.81 2.44 2.54 2.47 2.76 2.65 2.66 2.63 2.32 2.08 1.87 1.76 1.77 1.81 1.91 1.99 2.06 2.21 2.29
2.70 2.68 2.67 2.66 2.53 2.45 2.56 2.71 2.55 2.77 2.80 2.85 2.79 2.82 2.87 3.09 3.20 3.11 3.17 3.23 3.51 3.84 3.72 3.40 3.07 2.84 2.76 2.74 2.59 2.53 2.42 2.30 2.11 1.98 1.74 1.64 1.63 1.67 1.72 1.79 1.89 2.03 2.15
2.33 2.35 2.33 2.33 2.35 2.53 2.68 2.60 2.55 2.61 2.66 2.57 2.62 2.77 2.63 2.83 3.02 2.94 3.07 3.09 3.28 3.65 3.80 3.89 3.74 3.40 3.16 3.00 2.93 2.70 2.26 2.06 2.11 2.10 1.89 1.72 1.62 1.60 1.59 1.62 1.73 1.90 2.02
2.31 2.27 2.26 2.24 2.25 2.47 2.64 2.56 2.58 2.66 2.65 2.49 2.59 2.61 2.46 2.63 2.70 2.80 2.87 2.93 3.14 3.39 3.73 3.66 3.62 3.54 3.38 3.11 3.22 2.87 2.54 2.47 2.03 2.00 1.96 1.79 1.69 1.62 1.59 1.61 1.68 1.74 1.84
2.37 2.46 2.49 2.39 2.39 2.29 2.28 2.44 2.59 2.58 2.54 2.43 2.45 2.39 2.28 2.31 2.41 2.64 2.67 2.81 3.04 3.28 3.49 3.43 3.44 3.55 3.64 3.63 3.63 3.31 3.08 2.84 2.44 1.99 2.04 1.89 1.84 1.72 1.58 1.52 1.54 1.62 1.77
2.35 2.60 2.62 2.57 2.53 2.31 2.11 2.25 2.40 2.31 2.35 2.31 2.27 2.12 1.94 2.03 2.19 2.27 2.15 2.53 2.90 3.04 3.10 3.16 3.23 3.43 3.59 3.84 3.62 3.46 3.35 3.29 2.97 2.50 2.45 2.08 1.95 1.75 1.58 1.50 1.51 1.50 1.55
2.52 2.56 2.49 2.46 2.35 1.99 2.05 2.02 1.99 2.06 2.14 2.16 2.19 2.17 2.03 1.94 1.90 1.92 1.87 2.05 2.39 2.56 2.77 3.07 3.18 3.36 3.46 3.47 3.63 3.60 3.55 3.41 3.11 2.77 2.76 2.68 2.52 2.38 2.08 1.71 1.61 1.47 1.39
2.43 2.31 2.26 2.28 2.21 2.12 1.97 1.71 1.65 1.81 2.02 2.11 2.15 2.19 1.92 1.76 1.84 1.70 1.76 1.81 1.86 1.96 2.15 2.57 2.86 2.95 3.04 3.07 3.36 3.42 3.43 3.30 3.19 3.03 3.06 3.03 2.91 2.66 2.21 2.02 1.95 1.67 1.54
2.28 2.26 2.12 2.12 2.21 2.10 2.03 1.76 1.64 1.61 1.82 1.86 1.85 1.90 1.96 1.93 1.83 1.88 1.85 1.80 1.67 1.70 1.83 1.83 1.99 2.23 2.52 2.80 3.00 3.17 3.47 3.42 3.34 3.24 3.16 3.22 3.06 2.90 2.49 2.21 2.10 1.85 1.74
2.19 2.20 2.17 2.19 2.19 2.12 2.07 1.85 1.80 1.72 1.80 1.78 1.80 1.85 1.96 2.01 2.07 1.97 1.89 1.90 1.86 1.82 1.76 1.73 1.65 1.74 1.93 2.09 2.29 2.60 2.98 3.30 3.47 3.44 3.22 3.28 3.19 3.22 3.13 2.71 2.32 2.15 1.90
2.28 2.31 2.30 2.25 2.12 2.07 1.96 1.77 1.77 1.73 1.92 2.02 2.10 2.09 2.01 1.88 1.90 1.82 1.76 1.85 1.82 1.79 1.70 1.65 1.58 1.53 1.51 1.66 1.88 2.11 2.45 2.85 3.10 3.23 3.16 3.27 3.41 3.77 3.92 3.35 2.73 2.33 2.11